Temp
15 15 14 14 13 13 13 12 12 12 11 11 11 11 11 10 10 10 10 10 10 10 10 10 10 10 10 10 10 9 9 9 9 8 8 8 8 8 8 8 7 7 7 7 6 6 6 5 5 5 4 4 4 4 3 3 3 3 3 3 2 2 2 2 2 2 2 2 2
15 15 14 14 13 13 13 13 12 12 12 12 11 11 11 11 10 10 10 10 10 10 10 10 10 10 10 10 10 9 9 9 9 9 8 8 8 8 8 8 7 7 7 7 6 6 6 5 5 5 4 4 4 3 3 3 3 3 3 3 2 2 2 2 2 2 2 2 2
15 15 14 14 14 13 13 13 13 13 12 12 12 11 11 11 11 11 11 11 10 10 10 10 10 10 10 10 10 10 9 9 9 9 8 8 8 8 8 8 7 7 7 7 6 6 6 5 5 5 4 4 4 4 3 3 3 3 3 3 2 2 2 2 2 2 2 2 2
15 15 14 14 14 14 13 13 13 13 13 12 12 12 11 11 11 11 11 11 11 10 10 10 10 10 10 10 10 10 9 9 9 9 8 8 8 8 8 8 7 7 7 7 7 6 6 6 5 5 4 4 4 4 4 4 3 3 3 3 2 2 2 2 2 2 2 1 1
14 14 14 14 14 14 14 13 13 13 13 12 12 12 12 12 11 11 11 11 11 11 11 11 10 10 10 10 10 10 9 9 9 8 8 8 8 8 8 8 7 7 7 7 7 6 6 6 5 4 4 4 4 4 4 4 3 3 3 3 2 2 2 2 2 2 2 2 1
14 14 14 14 14 14 14 14 13 13 13 13 12 12 12 12 12 11 11 11 11 11 11 11 10 10 10 10 10 10 9 9 9 9 8 8 8 8 8 7 7 7 7 7 6 6 6 5 5 4 4 4 4 4 4 4 3 3 3 3 2 2 2 2 2 2 2 2 1
14 14 14 14 14 14 14 13 13 13 13 13 12 12 12 12 12 12 11 11 11 11 11 11 10 10 10 10 10 9 9 9 9 9 8 8 8 8 7 7 7 7 7 7 6 6 6 5 5 4 4 4 4 4 4 4 3 3 3 3 2 2 2 2 2 2 2 1 1
14 14 14 14 14 14 14 13 13 13 13 13 13 12 12 12 12 12 11 11 11 11 11 11 11 10 10 10 9 9 9 9 9 9 8 8 8 8 7 7 7 7 7 7 6 6 6 5 5 4 4 4 4 4 4 3 3 3 3 3 2 2 2 2 2 1 1 1 1
13 13 13 13 13 13 13 13 13 13 13 13 13 12 12 12 12 12 12 11 11 11 11 11 11 10 10 10 9 9 9 9 9 9 8 8 8 8 7 7 7 7 7 6 6 6 5 5 5 4 4 4 4 4 4 3 3 3 3 3 2 2 2 2 2 2 1 1 1
13 13 13 13 13 13 13 13 13 13 13 13 12 12 12 12 12 12 12 11 11 11 11 11 11 10 10 10 9 9 9 9 9 9 8 8 8 8 7 7 7 7 7 6 6 6 5 5 5 4 4 4 4 4 4 3 3 3 3 3 2 2 2 2 2 2 1 1 1
13 13 13 13 13 13 13 13 13 13 13 12 12 12 12 12 12 12 12 11 11 11 11 11 11 10 10 10 10 9 9 9 9 8 8 8 8 8 8 7 7 7 7 6 6 6 5 5 4 4 4 4 4 4 3 3 3 3 3 3 2 2 2 2 2 2 1 1 1
12 12 12 13 13 12 12 12 12 12 13 12 12 12 12 12 12 12 11 11 11 11 11 11 10 10 10 10 10 10 9 9 9 8 8 8 8 8 8 7 7 7 7 6 6 5 5 5 4 4 4 4 4 3 3 3 3 3 3 2 2 2 2 2 2 2 1 1 1
12 12 12 12 12 12 12 12 12 12 12 12 12 12 12 12 12 12 11 11 11 11 11 11 10 10 10 10 10 10 9 9 9 8 8 8 8 8 7 7 7 7 7 6 6 5 5 5 4 4 4 4 4 3 3 3 3 2 2 2 2 2 2 2 2 1 1 1 1
11 11 12 12 12 12 12 12 12 12 12 12 12 12 12 12 11 11 11 11 11 11 10 10 10 10 10 10 10 10 9 9 9 8 8 8 8 7 7 7 7 7 7 6 6 6 5 5 5 4 4 4 4 4 3 3 3 2 2 2 2 2 2 2 1 1 1 1 1
11 11 11 11 11 11 11 12 11 11 11 11 11 11 11 11 11 11 11 10 10 10 10 10 10 10 10 10 10 9 9 9 9 8 8 8 8 8 7 7 7 7 7 6 6 6 5 5 5 4 4 4 4 4 3 3 3 2 2 2 2 2 2 2 1 1 1 1 1
11 11 11 11 11 11 11 11 11 11 11 11 11 11 10 10 10 10 10 10 10 10 10 9 9 10 10 10 9 9 9 9 8 8 8 8 8 7 7 7 7 7 6 6 6 5 5 5 4 4 4 4 4 3 3 3 3 2 2 2 2 2 2 1 1 1 1 1 1
10 10 10 10 10 10 10 10 10 10 10 10 10 10 10 10 10 10 10 10 10 9 9 9 9 9 9 9 9 9 9 8 8 8 7 7 7 7 7 7 7 6 6 6 5 5 5 5 4 4 4 3 3 3 3 3 3 2 2 2 2 2 2 1 1 1 1 1 1
10 10 10 10 10 10 10 10 10 10 10 9 9 9 10 10 10 10 10 10 9 9 9 9 9 9 9 9 9 9 8 8 7 7 7 7 7 7 7 6 6 6 6 5 5 5 5 5 4 4 4 3 3 3 3 3 3 2 2 2 2 2 2 1 1 1 1 1 1
9 9 9 9 9 9 9 9 9 9 9 9 9 9 10 10 10 10 10 10 10 9 9 9 9 9 9 9 9 9 8 7 7 7 7 7 7 6 6 6 6 6 6 5 5 5 4 4 4 4 3 3 3 3 3 2 2 2 2 2 2 1 1 1 1 1 1 1 1
9 9 9 9 9 9 9 9 9 9 9 9 10 10 10 10 10 10 10 10 10 9 9 8 9 9 9 9 9 8 8 7 7 6 6 6 6 6 6 6 6 6 5 5 5 4 4 4 4 3 3 3 3 3 2 2 2 2 2 1 1 1 1 1 1 1 1 1 0
9 9 9 9 9 9 9 9 9 9 10 10 10 10 10 10 10 10 10 10 10 9 9 9 9 8 8 8 8 7 7 7 6 6 6 6 5 6 6 6 5 5 5 5 4 4 4 4 4 3 3 3 2 2 2 2 2 2 1 1 1 1 1 1 1 1 0 0 0
9 9 9 9 9 9 9 10 10 10 10 10 10 10 10 10 10 10 10 10 9 9 9 8 8 8 7 7 7 7 6 6 6 5 5 5 5 5 5 5 5 5 5 4 4 4 4 4 3 3 3 3 2 2 2 2 1 1 1 1 1 1 1 1 0 0 0 0 -0
9 9 9 9 9 9 9 9 9 10 10 10 10 10 10 10 10 9 9 9 8 8 8 8 7 7 7 6 6 6 5 5 5 5 5 5 5 5 5 5 5 4 4 4 4 4 3 3 3 3 3 2 2 2 2 2 1 1 1 1 1 1 0 0 0 -0 -0 -0 -0
9 9 9 9 9 9 9 9 9 9 9 9 9 9 9 8 8 8 8 8 8 7 7 7 6 6 6 6 5 5 5 5 5 5 5 5 5 5 5 5 4 4 4 4 4 3 3 3 3 3 2 2 2 2 2 2 1 1 1 1 1 0 0 0 -0 -0 -0 -0 -1
9 9 9 9 9 9 8 8 8 8 8 8 8 8 7 7 7 7 7 7 6 6 6 6 6 5 5 5 5 5 5 4 4 4 4 4 5 5 4 4 4 4 4 4 4 3 3 3 2 2 2 2 2 2 2 2 2 1 1 1 1 0 0 -0 -0 -0 -0 -0 -1
9 9 8 8 8 8 8 8 7 7 7 7 7 7 7 6 6 6 6 6 6 6 5 5 5 5 5 5 4 4 4 4 4 4 4 4 4 4 4 4 4 4 3 3 3 3 3 3 3 3 3 3 3 3 2 2 2 2 1 1 1 0 0 -0 -0 -0 -0 -1 -1
8 8 8 7 7 7 7 7 6 6 6 6 6 6 6 6 6 5 5 5 5 5 5 5 5 5 4 4 4 4 4 4 4 4 4 4 4 4 4 4 3 3 3 3 3 3 3 3 3 3 3 3 3 3 3 3 2 2 1 1 1 0 0 -0 -0 -0 -0 -1 -1
7 7 7 7 6 6 6 6 6 5 5 5 5 5 5 5 5 5 5 5 5 5 4 4 4 4 4 4 4 4 4 4 4 4 4 4 4 4 3 3 3 3 3 3 3 3 3 3 3 3 4 4 4 4 4 3 3 2 2 1 1 0 -0 -0 -0 -0 -0 -1 -1
7 6 6 6 6 5 5 5 5 5 5 5 5 5 5 5 5 4 4 4 4 4 4 4 4 4 4 4 4 4 4 4 4 4 3 3 3 3 3 3 3 3 3 3 3 3 3 3 3 3 4 4 4 4 4 3 3 3 2 2 1 1 0 -0 -0 -0 -0 -1 -1
6 6 5 5 5 5 5 5 4 4 4 4 4 4 4 4 4 4 4 4 4 4 4 4 4 4 4 4 4 4 3 3 3 3 3 3 3 3 3 3 3 3 3 3 3 3 3 3 3 3 4 4 4 4 4 3 3 3 3 3 2 2 1 0 0 -0 -0 -0 -1
5 5 5 5 4 4 4 4 4 4 4 4 4 4 4 4 4 4 4 4 4 4 4 4 4 4 4 3 3 3 3 3 3 3 3 3 3 3 3 3 3 3 3 3 3 3 3 3 3 3 3 4 4 4 3 3 3 3 3 3 2 2 2 1 1 0 -0 -0 -0
5 5 5 4 4 4 4 4 4 4 4 4 4 4 4 4 4 4 4 4 4 4 4 4 3 3 3 3 3 3 3 3 3 3 3 3 3 3 3 3 3 3 3 3 3 3 3 3 3 3 3 3 4 4 3 3 3 3 3 3 2 2 2 2 1 1 0 -0 -0
5 5 4 4 4 4 4 4 4 4 4 4 4 4 4 4 4 4 4 4 4 3 3 3 3 3 3 3 3 3 3 3 3 3 3 3 3 3 3 3 2 2 2 3 3 3 3 3 3 3 3 3 3 3 3 3 3 3 3 2 2 2 2 2 2 1 1 0 -0
5 4 4 4 4 4 4 4 4 4 4 4 4 4 4 4 4 3 3 3 3 3 3 3 3 3 3 3 3 3 3 3 3 3 3 3 3 2 2 2 2 2 2 3 3 3 3 3 3 3 3 3 3 3 3 3 3 3 3 2 2 2 2 2 2 2 1 1 0
4 4 4 4 4 4 4 4 4 4 4 3 3 3 3 3 3 3 3 3 3 3 3 3 3 3 3 3 3 3 3 3 3 3 3 2 2 2 2 2 2 2 2 3 3 3 3 3 3 3 3 3 3 3 3 3 3 3 2 2 2 2 2 2 2 2 2 1 1
4 4 4 4 4 4 4 3 3 3 3 3 3 3 3 3 3 3 3 3 3 3 3 3 3 3 2 2 2 2 2 2 2 2 2 2 2 2 2 2 2 2 2 3 3 3 3 3 3 3 3 3 3 3 3 2 2 2 2 2 2 2 2 2 2 2 2 1 1
4 4 4 4 3 3 3 3 3 3 3 3 3 3 3 3 2 2 2 2 2 2 2 2 2 2 2 2 2 2 2 2 2 2 2 2 2 2 2 2 2 2 2 2 3 3 3 3 3 3 3 3 3 2 2 2 2 2 2 2 2 2 2 2 2 2 2 1 1
4 3 3 3 3 3 3 3 3 3 3 2 2 2 2 2 2 2 2 2 2 2 2 2 2 2 2 2 2 2 2 2 2 2 2 2 2 2 2 2 2 2 2 2 2 2 2 2 2 3 3 2 2 2 2 2 2 2 2 2 2 2 2 2 2 1 1 1 1
3 3 3 3 3 3 3 2 2 2 2 2 2 2 2 2 2 2 2 2 2 2 2 2 2 2 2 2 2 2 2 2 2 2 2 2 2 2 2 2 2 2 2 2 2 2 2 2 2 2 2 2 2 2 2 2 2 2 2 2 2 2 2 1 1 1 1 1 1
3 3 3 3 3 2 2 2 2 2 2 2 2 2 2 2 2 2 2 2 2 2 2 2 2 2 2 2 2 2 2 2 2 2 2 2 2 2 2 2 2 2 2 2 2 2 2 2 2 2 2 2 2 2 2 2 2 2 2 2 1 1 1 1 1 1 1 1 1
3 3 2 2 2 2 2 2 2 2 2 2 2 2 2 2 2 2 2 2 2 2 1 1 2 2 2 2 2 2 2 2 2 2 2 2 2 2 2 2 2 2 2 2 2 2 2 2 2 2 2 2 2 2 2 2 2 2 1 1 1 1 1 1 1 1 1 1 1
Height
796 795 794 793 793 792 792 791 791 790 790 789 789 788 788 788 787 787 786 786 785 785 784 783 783 782 781 781 781 781 780 780 779 779 778 778 777 776 776 775 775 775 774 774 773 773 773 773 773 772 772 771 771 770 770 770 770 769 769 769 768 768 768 768 768 768 768 769 769
795 794 793 792 791 790 790 789 789 788 788 787 787 787 786 786 785 785 784 784 783 783 782 781 781 780 780 779 779 779 778 777 777 777 776 775 775 774 774 773 773 772 772 771 771 771 770 770 770 770 769 768 768 767 767 766 767 766 766 765 765 765 765 765 764 764 765 765 766
794 793 792 791 790 789 788 787 787 787 786 786 785 785 785 784 784 783 782 782 781 781 780 780 779 778 778 777 777 776 776 775 775 774 774 773 772 772 771 771 770 770 769 768 768 767 767 767 767 767 766 765 765 764 763 763 763 763 763 762 762 762 762 762 761 761 762 763 763
793 792 791 790 789 788 787 786 785 785 784 784 784 783 783 782 782 781 780 780 780 779 778 778 777 777 776 775 775 774 774 773 772 772 771 770 770 769 769 768 767 767 766 766 765 765 764 764 764 764 763 762 762 761 760 760 760 760 759 759 759 759 759 758 758 759 759 759 759
792 791 790 789 788 787 786 785 784 783 783 782 782 781 781 780 780 779 779 778 778 777 777 776 775 775 774 773 773 772 771 771 770 770 769 768 767 766 766 765 765 764 763 763 762 762 761 762 762 761 760 759 759 758 757 757 757 757 756 756 756 756 755 755 755 756 756 756 756
791 790 789 788 787 786 785 783 782 782 781 781 780 780 779 779 778 778 777 776 776 775 775 774 774 773 772 771 771 770 769 768 768 767 766 765 765 764 763 763 762 761 760 760 759 759 759 759 759 758 757 757 755 754 754 754 754 754 753 753 752 752 752 752 752 752 753 752 752
790 789 788 787 786 785 784 782 781 780 780 779 778 778 777 777 776 776 775 775 774 774 773 773 772 771 770 769 768 768 767 766 765 765 764 763 762 761 761 760 759 758 758 757 757 756 756 756 756 755 754 753 752 751 751 751 751 751 750 750 749 749 749 748 748 749 749 749 749
789 788 787 786 785 784 783 781 780 779 778 777 777 776 776 775 775 774 774 773 773 772 771 771 770 769 768 767 766 765 764 763 762 762 761 760 760 759 758 757 756 756 755 754 754 753 753 753 753 752 751 750 749 748 747 748 748 747 747 746 745 745 746 745 745 745 746 745 745
788 787 786 785 784 783 781 780 779 778 777 776 775 775 774 774 773 773 772 771 771 770 769 768 767 767 766 765 764 763 762 761 760 759 759 758 757 756 755 755 754 753 752 752 751 751 751 750 750 749 747 747 746 745 744 745 744 744 743 742 742 742 742 742 742 742 742 742 742
786 785 784 783 782 781 780 779 778 777 775 775 774 773 773 772 772 771 770 770 769 768 767 766 765 764 763 762 761 760 760 759 758 757 756 755 755 754 753 752 751 750 749 749 748 748 748 747 746 745 744 743 742 741 741 741 741 740 739 739 739 739 738 739 739 739 739 738 738
785 784 782 781 780 779 778 777 776 775 774 773 773 772 772 771 770 770 769 768 767 766 765 764 763 762 761 760 759 758 757 756 755 755 754 753 752 751 750 749 748 747 747 746 746 745 745 744 743 742 740 740 739 738 738 738 738 737 736 735 735 735 735 735 735 736 735 735 735
783 782 781 779 778 776 775 775 774 773 773 772 771 771 770 769 769 768 767 766 765 763 762 762 761 760 759 758 757 756 755 754 753 752 751 750 749 749 748 747 746 745 744 743 743 743 742 741 740 739 737 736 736 735 735 734 734 734 733 732 732 732 732 731 732 732 732 732 732
782 780 779 777 776 774 773 772 771 771 771 770 770 769 768 767 767 766 765 763 762 761 760 760 759 758 757 755 755 754 753 752 751 750 749 748 747 746 745 744 743 742 741 740 740 740 739 738 737 735 734 733 733 732 732 731 731 730 730 729 729 729 728 727 728 729 729 729 729
780 778 777 775 774 772 771 770 769 769 768 768 768 767 766 765 765 764 763 761 760 759 758 757 757 756 755 753 752 751 750 749 748 747 746 745 744 743 742 741 740 739 738 737 737 736 736 735 733 732 731 730 729 728 728 728 727 727 726 726 725 725 724 724 725 725 726 726 725
778 777 775 774 772 771 769 768 767 767 766 766 766 765 765 763 763 762 761 759 758 757 756 755 754 753 752 751 750 749 747 747 745 744 743 742 741 740 740 738 737 736 735 735 734 733 732 731 730 729 728 727 726 725 725 725 724 723 723 722 721 721 721 721 721 722 722 722 722
776 775 774 772 771 769 768 767 766 765 765 764 764 763 762 761 760 760 759 757 756 755 754 753 752 750 749 748 747 746 745 744 743 742 740 739 738 737 737 736 735 733 732 732 731 730 729 728 727 726 725 724 722 722 721 721 720 720 719 718 718 717 717 717 718 718 718 718 718
775 773 772 771 769 768 767 765 764 764 763 762 762 761 760 759 758 757 757 755 754 753 752 750 749 748 747 745 745 744 742 741 740 739 738 737 735 735 734 733 732 730 730 729 727 726 725 724 724 723 722 721 720 718 717 717 716 716 715 715 714 714 714 714 714 714 715 715 715
773 772 770 769 768 767 765 764 763 762 762 761 760 759 758 757 756 755 754 753 752 751 749 747 746 745 744 742 741 741 740 738 737 736 735 734 733 732 731 730 728 727 726 725 724 723 722 721 720 720 719 718 716 715 714 713 713 712 711 711 710 710 710 710 710 711 711 711 711
771 770 769 768 767 765 764 763 762 761 760 759 758 757 756 755 754 753 752 750 750 748 747 745 744 742 741 740 739 738 737 736 734 733 732 731 730 729 728 726 725 724 723 722 721 720 719 718 717 716 715 714 713 712 711 710 709 708 708 707 707 707 706 707 707 707 707 707 707
770 769 767 766 765 764 763 762 761 760 759 758 757 755 754 753 752 751 749 748 747 746 744 743 741 740 738 737 736 735 734 733 732 730 729 728 727 726 725 724 722 721 720 719 718 717 715 715 714 713 712 711 710 709 707 707 706 705 704 704 703 703 703 703 703 703 704 704 704
769 767 766 765 764 762 761 760 759 758 757 756 754 753 752 751 749 748 747 745 744 743 742 740 739 737 736 735 733 732 731 730 729 728 726 725 724 723 722 721 720 718 717 716 715 713 712 711 710 710 709 708 707 705 704 703 703 702 701 700 700 700 700 700 700 700 700 701 701
767 766 765 763 762 761 760 758 757 756 755 753 752 751 749 748 747 745 744 743 742 740 739 737 736 735 733 732 731 730 728 727 726 725 724 722 721 720 719 718 717 715 714 713 712 710 709 708 707 706 705 704 703 702 701 700 700 699 698 697 697 696 696 697 697 697 697 697 697
766 764 763 762 760 759 758 756 755 754 752 751 750 748 747 746 744 743 742 741 739 738 737 735 734 733 731 730 729 727 726 724 723 722 721 720 718 717 716 715 714 713 711 710 709 708 706 705 704 703 702 701 700 699 698 697 697 696 695 694 694 693 693 693 693 694 694 694 694
764 763 761 760 759 757 756 754 753 751 750 749 747 746 745 743 742 741 740 738 737 736 734 733 732 730 729 728 727 725 724 722 720 719 717 717 715 714 713 712 711 710 708 707 706 705 704 703 701 700 699 698 697 696 695 694 693 692 692 691 690 690 690 690 690 690 690 690 691
762 761 759 758 757 755 754 752 751 749 748 747 745 744 743 741 740 739 737 736 734 733 732 731 729 728 727 725 724 722 721 720 718 716 714 713 712 711 710 709 708 706 705 704 703 702 702 701 700 698 697 695 694 693 692 690 690 689 688 688 687 687 686 686 686 687 687 687 687
760 759 757 756 755 753 752 750 749 747 746 745 743 742 740 739 738 737 735 734 732 731 730 728 727 726 724 723 721 720 718 717 715 714 712 710 709 708 707 706 705 703 702 701 700 700 699 698 697 696 695 693 692 690 689 687 686 685 685 684 684 684 683 683 683 683 683 683 684
759 757 756 754 753 751 750 748 747 745 744 742 741 740 738 737 736 734 733 731 730 729 727 726 725 723 722 720 719 717 715 714 713 711 710 708 707 705 704 703 702 700 699 698 697 697 696 695 695 694 693 692 690 688 687 685 683 682 681 680 680 680 680 679 679 679 680 680 680
757 755 754 752 751 749 748 746 745 743 742 741 739 738 736 735 734 732 731 729 728 726 725 723 722 721 719 718 716 714 713 711 710 709 707 706 704 702 701 700 698 697 696 696 695 694 693 693 692 691 690 689 687 686 684 683 681 680 679 678 677 676 676 676 676 676 676 677 677
755 754 752 751 749 747 746 744 743 742 740 739 737 736 734 733 731 730 728 727 726 724 723 721 720 718 717 715 713 711 710 708 707 706 704 703 701 700 698 697 695 694 693 693 692 692 691 690 689 688 687 686 685 683 682 680 679 677 676 675 674 673 673 672 672 673 673 673 674
754 752 751 749 747 745 744 742 741 740 738 737 735 734 732 731 729 728 726 725 723 722 720 719 717 715 714 712 710 709 707 705 704 703 702 700 698 697 695 694 693 691 691 690 690 689 688 687 686 685 684 683 682 681 679 677 676 675 674 672 672 671 670 669 669 669 669 670 670
752 750 749 747 745 744 742 741 739 738 737 735 733 732 730 729 727 726 724 723 721 719 718 717 715 713 711 709 708 706 705 703 702 701 699 698 696 694 692 691 690 689 688 687 687 686 685 684 683 682 681 680 679 677 676 674 673 672 671 670 669 668 667 667 666 666 666 666 667
750 749 747 746 744 742 740 739 737 736 735 733 732 730 728 727 725 724 722 721 719 717 715 714 712 710 708 707 705 704 702 701 699 698 697 696 694 692 690 688 687 686 685 685 684 683 682 681 680 679 678 677 676 674 673 671 670 669 667 667 666 665 665 664 664 663 663 663 663
749 747 746 744 742 740 739 737 736 734 733 731 730 728 726 725 723 721 720 719 717 715 713 711 710 708 706 704 703 701 700 698 697 696 694 693 692 690 688 686 684 683 683 682 681 680 679 678 677 676 675 674 672 671 670 668 667 666 665 664 663 662 662 662 661 661 660 660 660
747 745 744 742 741 739 737 735 734 733 731 729 727 726 725 723 721 719 717 716 715 713 711 709 708 706 704 703 701 699 697 696 695 693 692 690 689 687 685 683 682 681 680 679 678 677 676 675 674 673 672 671 669 668 667 665 664 663 662 661 660 660 659 659 659 658 657 657 657
745 744 742 741 739 737 736 734 732 731 729 727 725 724 722 721 719 717 716 714 712 710 709 707 705 704 702 700 699 697 696 694 692 691 689 688 686 685 682 680 679 678 677 677 676 675 674 672 671 670 669 668 667 665 664 662 661 660 659 658 657 657 656 656 656 655 655 655 654
744 743 741 739 737 736 734 732 731 729 727 725 724 722 720 718 717 715 714 712 710 708 706 704 702 701 699 698 696 695 693 692 690 688 687 685 684 682 680 678 676 675 675 674 673 672 671 670 668 667 666 665 664 662 661 660 658 657 656 655 655 654 654 653 653 653 652 652 652
743 741 740 738 736 734 732 731 729 727 725 723 722 720 718 716 714 713 711 710 708 705 703 701 700 698 697 695 694 692 690 689 688 686 684 682 681 680 677 675 673 672 672 671 670 669 668 667 666 665 664 663 662 660 659 657 656 655 653 652 652 651 651 651 650 650 650 649 649
741 740 738 737 735 733 731 729 727 726 724 722 720 718 717 715 713 711 709 708 706 704 701 699 697 696 694 693 691 689 687 686 685 684 682 680 679 677 675 673 671 669 669 669 668 667 666 665 664 663 662 661 659 658 656 655 653 652 651 650 649 649 648 648 648 647 647 646 646
740 738 737 735 733 731 729 727 726 724 722 720 718 716 714 713 711 709 707 706 705 702 700 697 695 693 692 691 689 687 685 683 683 682 680 678 676 675 673 671 669 667 666 666 665 664 663 662 661 660 660 659 657 656 654 653 651 650 649 648 647 646 646 646 645 645 644 644 644
738 737 735 734 732 730 728 726 724 722 721 719 716 714 712 711 709 707 705 704 702 700 698 696 693 691 690 689 687 684 682 681 680 679 677 676 674 672 671 669 667 665 664 664 663 662 661 660 659 658 657 656 655 653 652 650 649 648 647 646 645 644 644 643 643 642 642 641 641
736 735 733 732 730 728 726 724 722 720 718 717 715 713 711 709 707 705 703 702 700 698 697 694 692 690 688 687 685 682 680 678 677 676 675 673 672 670 669 667 665 663 662 661 660 660 659 658 657 656 655 654 652 651 650 648 647 646 645 644 643 642 642 641 640 640 640 639 639
Wind_Speed
15 16 16 17 17 18 19 20 21 21 23 24 25 25 25 26 27 27 27 27 27 27 28 28 29 29 30 30 30 30 31 31 31 31 32 32 33 33 34 35 35 36 36 37 37 37 37 37 36 36 35 35 35 35 36 36 36 36 36 36 36 36 36 36 37 37 38 38 37
15 15 15 15 15 15 16 16 16 17 18 19 19 20 21 22 23 24 24 25 25 26 26 27 28 28 29 29 29 30 31 31 31 32 32 33 33 34 34 35 35 36 36 37 37 37 37 36 36 35 34 34 34 35 35 36 36 36 36 37 37 36 35 35 36 37 38 38 38
16 16 16 15 15 15 15 15 15 15 15 16 16 17 18 19 20 21 22 22 23 23 24 25 26 27 27 28 28 29 30 30 31 31 32 33 33 34 34 35 35 36 36 37 37 37 37 37 36 35 34 34 34 35 35 36 36 36 36 37 37 35 34 34 35 36 35 35 36
18 18 18 17 17 16 16 16 16 16 15 15 15 16 16 17 18 19 20 20 21 22 23 24 24 25 26 27 27 28 29 29 30 31 32 32 33 33 34 34 35 36 37 37 38 38 38 37 36 35 34 35 35 36 36 36 36 35 36 36 36 35 34 34 34 34 33 33 34
22 21 21 20 19 19 19 18 18 17 17 16 16 17 17 18 18 18 19 20 20 21 22 22 23 24 25 26 26 27 27 28 28 29 31 32 32 33 33 34 34 35 36 36 37 38 38 37 36 35 34 35 36 36 37 37 36 35 35 35 35 34 34 34 34 33 33 32 33
24 24 23 22 22 21 21 20 19 18 18 17 17 18 18 18 18 19 19 20 20 21 21 22 23 24 24 25 25 25 26 26 27 28 29 30 31 31 32 33 33 34 35 36 36 37 37 36 35 34 35 35 36 37 38 37 36 35 35 34 34 34 33 34 34 33 33 33 33
25 26 25 25 25 24 23 22 21 20 19 19 18 19 19 19 19 19 19 20 20 21 22 22 23 23 24 24 24 25 25 26 26 27 27 28 29 30 31 31 32 33 34 35 35 36 36 35 34 33 34 34 35 36 37 37 36 35 35 35 35 34 34 34 34 34 33 34 35
25 26 27 28 27 27 25 24 22 21 20 19 19 19 19 19 19 19 19 20 21 21 22 22 23 24 24 24 25 25 26 26 27 27 27 28 28 29 29 30 31 31 32 33 34 34 34 34 33 33 34 34 34 34 35 35 36 36 36 36 36 35 34 35 35 34 34 34 36
24 26 27 28 29 29 28 26 24 22 21 20 20 19 19 18 19 19 20 21 22 22 23 24 25 25 25 26 26 27 27 27 27 28 28 28 28 29 29 29 30 31 31 32 32 33 33 32 32 33 34 34 33 34 34 35 35 36 37 37 36 36 35 35 35 35 35 35 36
25 26 27 28 29 30 29 28 25 23 22 21 20 19 19 19 19 20 21 22 23 24 25 26 27 27 27 27 28 28 28 29 28 29 29 29 29 29 30 30 30 31 32 32 32 31 31 31 32 33 34 35 35 36 36 36 35 36 37 36 37 37 36 36 35 35 35 36 37
25 26 27 28 29 29 29 29 28 26 23 22 20 20 20 20 21 22 23 24 25 26 27 28 28 28 29 29 30 30 30 30 30 30 30 30 30 30 31 31 32 32 32 32 32 31 31 31 32 33 34 35 36 36 37 36 36 37 37 37 37 37 37 37 36 36 35 36 37
26 27 28 28 29 29 29 29 29 28 26 24 22 21 21 22 23 24 25 26 27 28 29 30 30 30 30 31 31 31 31 31 31 31 31 31 31 32 32 32 33 33 33 33 32 31 31 31 32 33 35 36 36 36 36 36 37 37 38 38 38 37 37 38 38 37 36 36 36
26 27 28 29 29 29 29 28 29 29 28 26 24 23 24 24 25 26 26 27 29 30 31 32 32 32 32 32 32 32 32 32 32 32 32 32 32 33 33 33 33 34 33 33 32 31 31 32 33 34 35 36 36 36 36 36 36 36 37 38 38 38 38 38 38 38 37 36 36
27 28 28 29 29 29 29 28 28 28 28 27 26 26 26 27 27 27 28 29 30 31 32 33 34 34 34 33 33 33 33 33 33 32 33 33 33 34 34 34 34 34 34 33 33 32 32 32 33 34 35 36 36 37 36 36 36 36 37 37 38 38 38 39 38 38 37 37 37
28 28 28 29 29 29 29 28 27 27 27 28 28 28 29 29 29 29 29 30 31 33 34 35 35 35 35 35 34 34 34 33 33 33 33 34 34 34 34 35 35 35 34 34 34 33 33 33 34 34 35 36 36 37 37 37 37 37 37 38 38 38 39 39 38 38 37 37 38
28 28 28 28 29 29 28 28 27 27 27 28 29 30 31 31 30 30 31 32 33 34 35 35 36 36 36 35 35 34 34 34 34 33 34 34 34 34 35 35 35 35 35 35 35 34 34 34 34 34 35 36 36 37 37 37 37 37 38 38 39 39 39 39 39 38 38 38 38
29 28 28 28 28 28 28 28 27 27 27 28 30 31 31 32 32 32 33 34 35 36 36 37 37 36 36 36 35 35 35 34 34 34 34 34 34 34 35 35 36 36 36 36 36 36 35 35 35 34 34 35 36 36 37 37 37 38 38 38 39 39 40 40 39 39 39 39 39
29 28 28 28 28 28 28 28 28 28 28 29 30 31 32 33 34 35 35 36 37 37 37 37 37 36 36 36 36 36 35 34 34 34 34 34 34 34 35 35 36 36 36 36 36 36 36 36 35 35 35 35 35 36 37 37 38 38 38 39 39 40 40 40 40 40 39 39 39
29 28 28 28 28 28 28 29 29 29 30 30 31 32 33 34 35 36 37 37 37 37 37 37 36 36 36 36 37 36 36 35 35 35 35 35 35 35 35 35 36 36 36 37 37 37 37 36 36 35 35 35 35 36 36 36 37 37 38 38 39 40 40 40 40 40 39 39 39
28 28 28 28 28 28 28 29 29 30 31 31 32 33 34 35 36 36 37 37 37 36 36 36 36 36 37 37 37 37 37 36 35 35 36 35 35 35 35 36 36 36 37 37 37 37 37 36 36 36 35 35 35 36 36 36 36 37 37 38 38 39 39 39 40 40 40 40 40
28 28 28 28 28 28 28 29 29 30 31 31 32 33 34 34 35 35 35 36 35 35 35 36 36 37 37 37 37 37 37 36 36 36 36 36 36 36 36 36 36 36 37 37 37 37 37 37 36 36 35 35 35 35 35 35 35 36 36 37 37 37 38 38 38 38 39 39 40
29 28 28 28 28 28 28 29 29 29 30 31 31 32 32 33 33 34 34 35 35 35 35 36 36 36 37 37 36 37 37 37 36 36 36 36 36 36 36 36 36 36 37 37 37 37 37 37 36 36 35 35 35 35 35 34 34 35 35 36 36 37 37 37 37 37 37 38 38
30 30 30 30 29 29 29 29 29 30 30 31 31 32 32 33 34 34 34 35 35 36 36 36 36 36 36 36 36 36 37 37 37 37 37 37 37 37 37 36 36 36 37 37 37 37 37 36 36 35 35 34 34 34 34 33 33 34 34 34 35 36 36 36 36 36 36 36 36
31 31 31 31 31 31 31 31 31 32 32 33 33 33 34 35 35 35 36 36 36 37 37 37 36 36 36 37 36 36 36 37 37 38 38 38 37 37 37 37 37 37 37 37 37 36 35 34 34 34 33 33 33 32 32 32 32 32 33 33 34 34 34 34 34 35 35 35 35
32 32 32 32 32 32 32 33 33 33 34 34 35 35 36 36 36 36 36 37 37 37 38 38 37 37 37 36 36 36 35 36 36 37 38 38 38 38 37 37 37 36 36 36 36 35 33 31 31 30 30 31 31 31 32 32 32 32 32 33 33 33 33 33 33 33 34 35 35
33 33 33 33 33 33 34 34 34 34 35 35 36 36 36 36 36 36 37 37 38 38 38 38 37 37 36 35 35 35 35 35 36 36 37 38 38 38 38 37 37 36 36 36 35 34 33 31 30 30 30 30 31 31 31 31 32 32 33 33 33 32 32 32 32 32 33 34 34
34 34 33 34 34 34 34 34 34 35 35 35 36 36 36 37 36 36 37 37 37 38 38 37 37 36 35 34 34 35 35 35 36 36 36 37 37 38 38 38 37 37 37 36 35 34 33 32 31 30 30 30 31 30 30 30 31 31 32 32 32 33 33 32 32 32 32 32 33
34 34 33 34 34 34 34 34 34 34 34 35 35 36 36 36 37 37 37 37 37 37 37 36 36 34 33 33 33 34 35 36 36 36 37 37 37 37 37 37 37 37 36 36 34 33 32 32 31 31 30 30 30 31 31 30 30 29 29 29 30 31 32 32 32 32 31 31 32
34 33 33 33 33 34 34 33 33 33 34 34 35 35 36 36 36 36 36 36 36 36 35 35 34 33 33 33 34 36 36 37 37 36 36 36 36 36 36 37 37 37 36 35 34 33 32 32 31 31 31 31 31 30 29 29 29 28 27 26 27 27 29 30 31 31 31 31 31
33 33 32 32 33 33 33 33 33 33 34 34 35 35 35 36 36 35 35 35 35 35 35 35 34 34 34 35 36 36 36 36 36 35 35 35 35 36 36 37 37 37 36 35 34 33 32 32 32 31 31 31 32 32 31 30 29 29 28 27 26 26 27 28 30 30 31 30 30
33 32 32 32 32 32 33 33 33 33 34 34 34 35 35 35 35 35 34 34 35 35 35 35 35 35 36 36 36 35 35 35 35 34 34 34 34 35 36 36 37 37 36 35 33 33 32 32 32 31 31 31 32 32 31 30 30 29 28 28 27 27 27 27 28 29 30 31 30
32 32 31 31 31 32 33 33 33 33 33 33 34 34 34 34 34 34 34 34 34 34 35 34 34 34 35 35 35 34 34 34 34 33 33 33 33 35 36 36 36 36 35 34 33 32 31 31 31 31 31 31 32 32 32 32 31 30 29 29 29 28 28 27 27 28 29 30 31
32 32 31 30 31 32 32 32 32 32 33 33 33 33 33 34 34 34 34 33 33 33 33 33 33 33 33 33 33 33 33 33 33 33 33 33 34 35 35 35 35 35 34 32 31 31 31 31 31 31 31 32 32 32 32 31 30 30 29 28 27 27 27 27 27 27 28 29 30
31 31 30 30 30 31 31 32 32 32 32 32 32 33 33 33 33 33 33 33 33 32 32 32 32 32 32 32 32 32 33 33 33 33 34 35 35 35 35 34 34 34 32 32 31 31 31 31 31 31 32 32 32 32 31 31 30 29 28 27 27 27 27 27 28 28 28 29 29
30 30 29 30 30 31 31 31 32 32 32 32 32 33 33 33 33 33 33 33 33 33 32 32 32 32 32 32 32 32 32 33 34 34 35 35 34 34 34 34 35 34 33 32 31 31 31 31 31 31 32 31 31 30 30 29 29 28 28 28 27 27 27 27 28 28 28 29 29
29 28 29 30 30 31 31 31 32 32 32 32 32 33 33 33 33 33 33 33 33 32 32 32 32 32 31 31 32 32 32 33 33 34 34 34 33 33 33 34 35 34 33 32 32 31 31 31 31 31 31 30 30 29 29 27 27 26 26 27 27 27 27 27 28 28 28 28 29
28 28 29 30 30 31 31 31 31 32 32 32 32 32 33 33 33 33 33 31 31 31 31 32 31 31 31 31 32 32 32 32 32 32 33 33 32 32 32 33 34 34 33 32 31 31 31 30 30 30 29 29 29 28 27 26 25 25 25 25 25 25 25 26 26 27 27 28 29
28 28 29 29 30 31 31 31 31 31 32 33 33 33 33 33 33 33 32 30 29 30 31 31 31 31 32 32 32 32 33 32 31 31 31 32 32 32 32 32 33 34 33 32 31 30 30 29 29 29 29 28 28 27 26 25 24 23 23 23 23 24 24 24 24 25 26 27 27
29 29 29 29 30 31 31 31 31 32 32 32 33 34 33 33 32 32 31 30 29 29 30 31 32 32 32 32 31 31 32 32 31 31 31 31 32 32 32 31 32 33 33 31 30 29 29 29 29 29 29 28 28 26 25 24 23 23 22 22 22 23 23 23 23 23 24 25 26
29 29 29 29 30 30 31 31 32 32 32 32 33 34 33 33 32 32 31 30 30 30 30 31 32 32 32 31 30 30 31 31 31 31 31 31 32 32 32 31 32 32 32 31 30 30 30 30 30 29 28 28 27 26 25 23 23 22 22 21 21 21 21 21 21 22 22 24 25
29 29 29 30 30 30 31 31 32 32 32 32 33 33 32 32 32 32 31 31 31 31 31 31 31 32 32 31 30 30 30 31 32 32 32 32 33 33 32 32 32 32 32 32 31 30 30 29 29 28 28 27 27 25 24 23 21 21 20 20 20 20 20 20 20 20 20 21 22
Wind_Direction
295 290 287 285 285 284 284 285 285 285 284 283 282 283 282 281 280 280 281 281 280 280 282 284 285 287 289 289 288 287 286 285 283 281 280 278 277 277 276 275 274 272 269 268 266 264 261 259 256 253 251 250 249 249 248 247 246 245 244 242 242 241 241 240 239 239 239 238 238
297 291 287 284 283 283 284 286 287 287 288 287 287 287 286 285 283 283 284 284 284 284 285 286 287 288 289 290 290 289 287 286 284 283 281 280 279 279 278 276 275 273 272 270 267 265 262 260 256 254 252 251 250 249 248 248 246 245 244 243 243 242 241 240 240 241 240 239 239
294 290 285 281 279 279 280 282 284 286 287 288 289 290 288 287 286 285 286 287 289 290 289 288 289 290 291 291 291 290 288 287 286 284 283 281 281 280 278 277 276 275 273 271 269 267 264 261 257 254 252 251 250 249 249 248 247 245 244 244 243 242 241 241 241 241 241 240 240
294 292 288 279 276 276 276 278 280 282 284 285 287 288 287 287 287 287 289 291 292 292 291 291 292 292 292 292 291 290 289 288 286 285 283 282 281 281 279 278 277 276 274 273 271 268 266 263 259 255 254 252 251 250 250 249 248 246 245 245 244 243 241 241 242 241 241 240 240
298 294 290 282 278 276 275 275 275 277 278 280 282 283 283 284 286 288 290 291 291 292 294 295 295 294 292 291 291 291 290 289 287 285 283 283 282 282 281 280 278 277 276 274 272 270 268 265 260 257 255 254 253 252 251 251 249 247 246 245 244 243 242 242 241 242 241 240 239
300 295 289 284 280 278 275 273 273 273 274 275 276 277 278 280 283 286 288 290 291 293 294 295 294 293 293 292 292 292 291 290 289 287 285 284 284 283 282 281 280 279 278 276 274 272 270 266 262 258 257 255 254 254 253 252 250 248 246 246 244 243 242 241 241 241 240 240 239
300 295 290 287 284 280 277 275 273 272 271 271 272 273 274 277 280 284 287 289 292 293 294 294 294 295 295 295 294 294 293 293 292 291 289 287 286 286 285 283 283 281 280 278 277 274 271 268 263 260 258 257 256 255 254 252 250 248 246 245 245 244 242 241 241 240 240 239 239
305 299 294 289 285 283 280 277 274 271 270 269 270 271 274 277 281 284 288 291 293 295 297 298 299 300 300 299 298 297 297 296 295 294 293 291 290 290 289 288 286 285 283 282 279 277 273 269 265 261 259 258 257 256 255 253 250 248 246 245 246 245 243 242 242 240 239 239 238
314 308 302 295 290 286 283 278 274 272 270 270 271 273 277 281 285 289 292 295 297 300 302 304 305 306 305 304 302 301 300 299 298 297 297 296 295 294 293 292 290 289 287 285 282 279 276 272 267 263 261 259 257 256 256 254 251 249 247 246 246 246 244 243 242 241 240 239 239
320 316 311 305 299 292 286 280 275 272 271 272 274 277 282 286 290 294 297 299 302 304 305 307 308 308 307 306 304 304 303 301 300 299 299 298 297 296 295 294 293 292 291 289 286 283 279 274 269 266 263 261 259 259 258 255 252 250 249 247 247 246 245 243 242 241 240 239 239
321 319 315 311 307 300 292 283 276 273 272 274 278 282 287 291 295 299 301 303 304 305 306 308 309 308 307 306 305 305 304 303 301 299 298 298 297 297 296 295 294 293 292 291 289 285 280 275 271 268 266 264 262 261 259 257 254 251 250 249 248 247 246 244 243 241 240 240 240
323 320 317 313 311 307 300 290 280 274 273 275 280 286 291 296 299 302 304 304 304 305 307 309 308 307 306 305 305 305 304 303 301 299 298 297 297 296 296 296 295 294 293 293 291 287 282 277 273 271 269 267 264 262 260 258 255 253 251 251 249 248 246 246 244 242 241 240 240
323 320 317 315 313 311 307 299 288 279 275 276 281 288 295 299 303 304 304 304 304 306 307 308 307 306 305 304 304 304 303 302 301 299 297 296 296 296 295 295 295 294 294 293 292 288 284 280 276 274 272 270 267 264 261 259 256 254 252 251 250 248 247 246 245 244 242 241 241
323 321 318 316 315 314 312 308 298 287 280 279 283 291 298 302 305 305 304 304 304 305 306 306 306 305 304 303 303 302 302 301 300 298 297 296 296 295 294 294 294 294 294 293 292 289 286 282 279 277 274 272 269 267 264 261 258 255 253 252 250 249 248 248 247 245 243 242 241
324 322 320 318 317 317 316 314 308 298 290 286 288 295 301 304 306 305 305 303 303 304 304 304 303 303 303 303 302 301 300 300 298 297 296 296 296 295 294 294 294 294 293 293 292 290 287 284 282 279 276 274 272 270 267 263 260 257 255 253 252 251 250 249 248 246 244 242 242
325 323 322 321 320 320 319 318 315 309 301 296 296 300 304 305 306 305 304 303 303 302 302 302 301 302 302 302 301 300 299 297 296 296 295 295 295 295 295 294 294 293 293 292 291 290 288 286 283 280 277 275 274 272 269 266 263 260 257 255 254 252 251 251 249 247 245 243 242
326 325 325 324 323 323 322 321 319 316 311 306 304 305 305 306 306 305 304 303 302 301 301 301 301 301 300 300 300 299 297 295 294 294 294 294 295 295 295 294 294 293 293 291 290 289 288 287 284 281 278 276 274 272 271 268 265 262 259 257 255 254 253 252 250 248 247 245 244
328 327 327 326 326 325 324 323 322 319 316 312 310 308 307 306 305 305 304 303 302 301 300 301 301 301 300 299 299 298 296 294 293 293 293 293 294 294 293 293 294 293 292 291 289 288 288 287 285 283 280 277 275 273 271 269 267 264 262 260 258 256 255 253 251 250 248 246 245
329 329 328 328 327 325 324 323 321 319 317 314 311 309 307 306 305 304 304 303 303 302 301 301 301 300 300 298 298 297 295 293 293 293 293 293 293 293 292 293 294 294 292 291 289 288 287 286 285 283 281 278 276 274 271 269 267 265 263 261 260 258 256 255 253 251 249 248 247
330 329 328 327 326 325 323 321 319 317 315 312 310 309 307 306 305 304 304 303 304 304 302 301 300 299 299 298 297 296 295 294 293 293 293 293 292 291 291 292 293 293 292 290 289 287 286 286 285 283 281 279 276 274 272 270 268 266 264 262 261 259 258 256 255 253 251 249 248
329 328 328 327 325 323 321 319 317 315 313 311 309 308 307 306 305 305 304 304 304 303 302 300 299 298 298 297 297 296 296 295 294 292 292 291 291 290 291 292 292 292 291 290 288 287 286 285 284 283 282 279 277 275 273 271 269 267 265 263 261 260 259 258 256 255 253 251 250
328 328 327 326 324 322 320 318 316 314 313 311 310 308 307 306 306 305 304 304 303 302 300 299 299 298 298 297 297 296 296 295 294 292 291 290 290 290 291 291 291 291 290 289 288 287 286 285 284 283 281 279 277 276 274 272 270 268 266 264 263 262 260 259 257 256 254 253 252
327 327 326 324 323 322 320 318 317 315 314 312 311 310 308 307 306 305 305 304 303 302 301 300 299 299 298 298 297 296 296 295 294 293 292 291 290 291 291 291 290 289 289 288 287 286 285 285 284 283 282 280 278 277 275 273 271 269 267 265 264 263 261 260 258 256 255 254 252
326 325 325 323 322 321 320 319 317 316 315 313 312 310 309 308 307 307 306 305 304 303 302 302 301 300 300 299 298 297 295 294 294 293 293 292 291 291 291 291 290 289 288 288 288 286 285 283 283 282 282 280 279 278 277 275 272 270 268 266 264 263 262 260 258 256 255 254 253
325 325 324 323 322 321 320 319 317 315 314 313 312 311 310 309 309 308 307 306 305 304 304 303 302 302 301 300 299 297 296 294 293 293 293 293 292 292 291 291 290 289 289 288 288 286 284 281 279 279 279 279 278 277 276 275 272 270 268 265 264 262 261 260 258 256 255 254 253
324 324 323 322 322 320 318 317 315 314 313 312 311 311 310 309 308 307 306 305 304 304 304 303 303 302 301 299 298 297 295 294 293 292 291 291 291 291 291 289 289 288 288 288 287 286 284 281 278 277 277 276 276 275 274 272 271 269 266 264 262 260 258 257 256 255 255 254 253
323 322 321 321 320 318 316 315 314 313 312 311 310 310 309 309 308 306 305 304 304 304 304 303 302 301 300 298 297 295 294 293 292 291 290 289 289 289 289 289 288 288 288 288 287 286 284 282 280 279 277 277 276 275 274 272 271 269 265 262 259 257 255 254 253 253 253 253 252
321 320 320 319 318 316 315 314 313 311 310 310 309 309 308 307 306 305 304 303 303 303 302 302 301 300 298 296 295 294 293 292 291 290 289 288 287 287 287 287 287 287 287 287 286 285 284 283 281 280 279 278 278 278 277 276 275 272 267 262 258 255 253 252 253 253 252 252 251
320 320 319 317 316 315 314 312 311 310 310 309 309 308 307 306 305 304 303 303 302 301 301 300 300 298 296 294 293 293 293 292 291 290 288 287 286 286 286 286 287 287 287 287 286 285 284 283 282 281 280 279 280 280 279 279 278 276 272 267 262 257 253 251 251 251 250 250 251
320 319 317 316 314 313 312 311 310 310 309 309 308 307 306 305 304 303 302 302 301 300 299 299 298 296 294 293 293 293 292 291 290 289 288 287 286 286 286 287 287 287 288 287 287 286 284 283 282 281 280 281 281 281 280 279 278 277 275 272 268 263 257 252 251 249 249 249 249
319 318 317 315 313 312 311 311 311 310 310 309 308 306 305 304 303 302 302 301 300 300 300 298 297 295 294 294 293 292 291 291 290 289 287 286 286 286 287 287 287 288 288 288 287 286 285 284 282 281 281 281 282 281 280 279 278 277 274 272 270 266 262 257 253 250 247 246 246
318 318 316 314 312 311 311 311 311 310 309 308 307 305 304 303 302 302 301 301 301 300 300 298 297 296 295 295 294 293 292 291 290 289 288 287 287 287 288 288 288 288 288 288 287 286 284 283 282 281 280 281 281 281 281 280 280 278 276 273 271 268 266 262 258 254 249 246 244
318 317 316 313 312 311 311 311 310 309 308 307 306 305 304 303 303 302 302 302 301 300 299 298 297 296 295 295 295 294 293 292 291 290 290 289 289 288 288 288 288 288 288 287 286 285 284 283 282 281 280 281 282 283 283 282 282 280 278 275 272 270 268 265 262 257 253 249 245
318 317 315 313 311 311 310 310 310 309 308 307 305 305 304 304 303 303 303 303 302 300 299 298 297 296 295 295 294 293 293 292 292 291 291 291 290 289 289 288 288 288 288 287 286 285 284 284 282 282 282 284 285 285 285 284 283 281 278 275 273 272 270 267 265 261 257 253 248
317 316 314 313 312 311 310 310 309 309 308 307 306 305 305 304 304 303 303 303 302 301 299 298 297 296 296 295 294 293 293 292 292 292 292 292 291 289 288 287 287 288 288 288 287 286 284 283 283 283 285 286 287 287 287 285 283 280 277 275 274 272 270 269 267 264 261 257 253
316 314 313 312 311 311 310 310 309 309 308 306 306 305 305 305 304 303 303 303 302 301 299 299 298 298 297 296 295 294 293 292 292 292 292 291 290 289 287 287 288 288 289 288 287 286 285 284 284 285 288 289 289 289 287 285 282 279 277 275 273 272 271 269 268 266 262 258 255
314 313 312 312 311 310 310 309 309 308 307 306 305 305 305 304 304 303 303 303 302 301 300 299 299 298 297 296 295 295 294 293 292 291 291 291 289 288 287 287 288 288 289 289 288 287 286 284 286 288 290 291 291 290 288 285 283 280 278 276 275 273 272 271 269 266 263 260 256
313 313 312 311 310 310 309 309 308 307 306 305 305 305 304 304 303 303 303 303 302 300 299 299 298 298 297 297 296 295 294 293 292 290 290 289 289 288 287 287 288 288 289 289 288 287 286 286 288 291 293 293 292 290 288 286 284 282 281 279 278 277 276 273 270 268 264 261 258
312 312 312 310 310 309 309 308 307 306 305 305 305 305 304 304 303 303 302 302 301 299 299 298 298 298 297 297 296 295 294 293 292 291 290 289 289 289 288 287 288 288 289 289 289 288 288 289 292 294 294 294 292 290 288 287 285 284 283 282 281 280 278 275 271 268 265 262 259
312 312 311 310 309 308 308 307 306 305 304 304 304 304 304 303 302 302 302 301 300 300 299 298 297 297 297 297 296 295 294 293 293 292 291 290 290 290 289 288 288 288 289 289 290 290 290 292 294 295 295 293 292 290 289 287 286 285 284 283 282 281 279 276 272 269 265 262 259
312 311 311 310 309 308 307 306 305 305 304 304 303 303 303 303 302 302 302 301 301 300 299 298 297 297 297 297 296 295 294 294 293 293 292 291 291 291 290 289 288 288 289 290 290 290 291 293 294 295 295 294 293 291 290 288 287 286 286 285 283 282 280 278 275 271 267 263 260